{"data":{"norad_id":67008,"intl_designator":"2025-293F","name":"STARLINK-36163","alt_names":[],"object_type":"PAYLOAD","status":"ACTIVE","operator":null,"country":"US","launch_date":"2025-12-10","launch_site_code":"AFWTR","launch_vehicle":null,"mission":null,"orbit_class":"UNKNOWN","rcs_meters":null,"size_class":null,"mass_kg":null,"dimensions":null,"purposes":["comms"],"wikipedia_slug":null,"has_3d_model":false,"image_url":null,"decayed_at":null,"tle_current":{"epoch":"2026-05-25T01:02:23.699904Z","epoch_age_seconds":71359,"freshness":"FRESH","line1":"1 67008U 25293F   26145.04332986  .00001077  00000+0  98045-4 0  9999","line2":"2 67008  70.0008 261.9883 0003502 265.4017  94.6742 14.98328628 26326","mean_motion":14.98328628,"eccentricity":0.0003502,"inclination_deg":70.0008,"raan_deg":261.9883,"arg_perigee_deg":265.4017,"mean_anomaly_deg":94.6742,"bstar":9.8045e-5,"rev_number":2632,"period_min":96.10708712962,"perigee_km":569.62617470824,"apogee_km":574.49409278071,"semimajor_km":6950.1971337445,"source":"CELESTRAK","updated_at":"2026-05-25T13:38:21.430264Z"}}}